QPF
0.00 0.00 0.01 0.00 0.01 0.00 0.00 0.00 0.00 0.00 0.00 0.00 0.00 0.00 0.01 0.02 0.00 0.00 0.01 0.01 0.01 0.02 0.03 0.03 0.02 0.02 0.02 0.02 0.01 0.02 0.01 0.01 0.02 0.02 0.02 0.02 0.02 0.02 0.02 0.04 0.06 0.07 0.07 0.07
0.00 0.00 0.00 0.00 0.00 0.00 0.00 0.00 0.00 0.00 0.00 0.00 0.00 0.00 0.02 0.04 0.01 0.00 0.00 0.01 0.01 0.02 0.02 0.02 0.03 0.02 0.01 0.02 0.02 0.02 0.02 0.02 0.02 0.01 0.02 0.02 0.02 0.02 0.02 0.04 0.08 0.08 0.08 0.09
0.00 0.00 0.00 0.00 0.00 0.00 0.00 0.00 0.00 0.00 0.00 0.00 0.00 0.00 0.01 0.03 0.02 0.00 0.00 0.01 0.02 0.02 0.02 0.03 0.04 0.03 0.01 0.02 0.02 0.02 0.03 0.03 0.03 0.02 0.02 0.02 0.02 0.03 0.04 0.07 0.10 0.09 0.07 0.07
0.00 0.00 0.00 0.00 0.00 0.00 0.00 0.00 0.00 0.00 0.00 0.00 0.00 0.01 0.02 0.01 0.01 0.00 0.01 0.01 0.01 0.01 0.01 0.03 0.03 0.03 0.02 0.02 0.01 0.02 0.02 0.03 0.04 0.04 0.03 0.02 0.02 0.03 0.04 0.07 0.09 0.09 0.08 0.07
0.01 0.00 0.00 0.00 0.00 0.00 0.00 0.00 0.00 0.00 0.00 0.01 0.00 0.01 0.03 0.01 0.01 0.00 0.02 0.03 0.01 0.01 0.01 0.02 0.02 0.02 0.01 0.01 0.01 0.02 0.03 0.03 0.03 0.03 0.03 0.04 0.04 0.03 0.05 0.07 0.09 0.09 0.07 0.06
0.00 0.00 0.00 0.00 0.00 0.00 0.00 0.00 0.00 0.00 0.01 0.03 0.01 0.01 0.02 0.02 0.01 0.01 0.02 0.05 0.02 0.00 0.01 0.01 0.01 0.01 0.01 0.01 0.02 0.02 0.04 0.05 0.04 0.04 0.03 0.04 0.04 0.04 0.06 0.08 0.08 0.07 0.06 0.05
0.02 0.01 0.01 0.00 0.00 0.00 0.00 0.01 0.03 0.03 0.03 0.02 0.01 0.01 0.03 0.01 0.01 0.01 0.01 0.02 0.01 0.00 0.00 0.01 0.02 0.01 0.01 0.01 0.02 0.01 0.03 0.05 0.05 0.04 0.03 0.03 0.04 0.03 0.04 0.05 0.05 0.05 0.06 0.05
0.04 0.02 0.01 0.00 0.00 0.01 0.00 0.01 0.03 0.03 0.02 0.02 0.01 0.03 0.03 0.02 0.02 0.02 0.03 0.01 0.00 0.00 0.00 0.00 0.00 0.00 0.01 0.02 0.02 0.01 0.02 0.04 0.05 0.05 0.04 0.03 0.03 0.03 0.03 0.04 0.03 0.03 0.03 0.04
0.04 0.02 0.01 0.00 0.00 0.00 0.01 0.01 0.01 0.02 0.02 0.02 0.02 0.03 0.02 0.02 0.02 0.02 0.02 0.01 0.00 0.00 0.00 0.00 0.00 0.01 0.01 0.02 0.01 0.02 0.02 0.04 0.05 0.05 0.05 0.04 0.03 0.03 0.03 0.03 0.03 0.03 0.03 0.04
0.03 0.03 0.01 0.01 0.00 0.01 0.01 0.01 0.02 0.03 0.03 0.03 0.03 0.04 0.03 0.03 0.04 0.05 0.05 0.02 0.01 0.01 0.01 0.00 0.00 0.01 0.03 0.03 0.03 0.01 0.01 0.04 0.05 0.05 0.04 0.03 0.03 0.03 0.03 0.03 0.03 0.03 0.03 0.02
0.01 0.03 0.02 0.01 0.01 0.00 0.01 0.01 0.02 0.03 0.03 0.03 0.04 0.05 0.04 0.04 0.06 0.09 0.10 0.03 0.01 0.01 0.01 0.00 0.01 0.02 0.06 0.03 0.02 0.01 0.01 0.06 0.05 0.04 0.04 0.04 0.04 0.03 0.03 0.03 0.03 0.03 0.03 0.03
0.01 0.02 0.03 0.01 0.00 0.00 0.00 0.01 0.03 0.04 0.03 0.03 0.04 0.06 0.07 0.07 0.07 0.06 0.04 0.01 0.01 0.01 0.02 0.01 0.01 0.03 0.04 0.04 0.03 0.02 0.01 0.04 0.03 0.03 0.04 0.05 0.05 0.04 0.04 0.03 0.03 0.03 0.03 0.04
0.00 0.02 0.03 0.02 0.02 0.01 0.01 0.01 0.02 0.03 0.05 0.05 0.05 0.06 0.05 0.04 0.05 0.05 0.04 0.03 0.03 0.05 0.03 0.01 0.01 0.02 0.02 0.02 0.02 0.02 0.01 0.01 0.01 0.02 0.02 0.04 0.05 0.05 0.04 0.04 0.04 0.04 0.04 0.04
0.00 0.01 0.04 0.06 0.03 0.02 0.01 0.01 0.02 0.04 0.07 0.07 0.05 0.07 0.04 0.02 0.04 0.07 0.04 0.05 0.06 0.06 0.03 0.02 0.03 0.03 0.01 0.01 0.02 0.01 0.01 0.01 0.01 0.01 0.01 0.02 0.03 0.04 0.05 0.04 0.05 0.05 0.05 0.05
0.00 0.01 0.01 0.02 0.01 0.02 0.02 0.01 0.01 0.02 0.03 0.03 0.04 0.04 0.02 0.01 0.03 0.06 0.05 0.03 0.03 0.04 0.02 0.02 0.01 0.02 0.02 0.01 0.01 0.01 0.01 0.01 0.01 0.01 0.01 0.02 0.02 0.05 0.05 0.05 0.04 0.05 0.07 0.07
0.01 0.01 0.01 0.01 0.01 0.02 0.02 0.01 0.01 0.02 0.02 0.02 0.03 0.05 0.03 0.02 0.02 0.04 0.05 0.03 0.02 0.02 0.02 0.02 0.01 0.02 0.03 0.02 0.01 0.01 0.01 0.01 0.01 0.01 0.02 0.02 0.03 0.04 0.06 0.06 0.05 0.06 0.08 0.08
0.01 0.02 0.03 0.02 0.01 0.02 0.02 0.02 0.02 0.03 0.03 0.02 0.04 0.05 0.04 0.04 0.04 0.02 0.03 0.02 0.01 0.02 0.02 0.03 0.03 0.04 0.04 0.03 0.02 0.01 0.01 0.01 0.02 0.02 0.02 0.03 0.03 0.03 0.04 0.06 0.07 0.07 0.08 0.09
0.01 0.03 0.04 0.04 0.03 0.04 0.03 0.02 0.02 0.03 0.03 0.03 0.03 0.04 0.04 0.04 0.04 0.03 0.02 0.01 0.01 0.01 0.01 0.03 0.04 0.06 0.06 0.04 0.05 0.03 0.01 0.01 0.02 0.03 0.02 0.02 0.03 0.03 0.04 0.04 0.06 0.07 0.07 0.08
0.01 0.02 0.04 0.06 0.05 0.05 0.03 0.02 0.02 0.02 0.03 0.02 0.02 0.02 0.03 0.04 0.05 0.04 0.03 0.01 0.01 0.01 0.01 0.02 0.05 0.07 0.07 0.06 0.06 0.03 0.02 0.02 0.02 0.03 0.03 0.02 0.02 0.03 0.03 0.03 0.05 0.07 0.07 0.07
0.01 0.01 0.03 0.06 0.08 0.07 0.05 0.02 0.01 0.02 0.04 0.03 0.02 0.01 0.02 0.05 0.08 0.06 0.04 0.02 0.01 0.02 0.02 0.03 0.05 0.07 0.08 0.08 0.07 0.05 0.06 0.04 0.03 0.03 0.03 0.03 0.03 0.04 0.03 0.03 0.04 0.05 0.06 0.06
0.05 0.04 0.05 0.06 0.07 0.09 0.05 0.02 0.02 0.05 0.07 0.04 0.02 0.01 0.02 0.04 0.07 0.06 0.05 0.02 0.02 0.03 0.03 0.02 0.03 0.06 0.08 0.07 0.06 0.06 0.08 0.07 0.06 0.05 0.06 0.06 0.05 0.05 0.05 0.05 0.05 0.05 0.05 0.08
0.04 0.06 0.07 0.07 0.07 0.09 0.07 0.04 0.04 0.05 0.03 0.03 0.02 0.02 0.03 0.04 0.04 0.05 0.06 0.03 0.03 0.04 0.04 0.03 0.03 0.05 0.06 0.05 0.04 0.04 0.04 0.05 0.05 0.06 0.07 0.06 0.06 0.05 0.05 0.05 0.05 0.04 0.06 0.07
0.02 0.04 0.05 0.06 0.07 0.08 0.09 0.08 0.06 0.03 0.03 0.04 0.03 0.03 0.03 0.03 0.02 0.03 0.05 0.04 0.05 0.05 0.04 0.05 0.05 0.07 0.06 0.04 0.03 0.03 0.03 0.03 0.03 0.04 0.05 0.06 0.06 0.07 0.06 0.04 0.04 0.04 0.05 0.07
0.03 0.02 0.03 0.04 0.05 0.08 0.11 0.10 0.07 0.04 0.05 0.05 0.03 0.03 0.04 0.04 0.03 0.02 0.03 0.04 0.05 0.05 0.04 0.05 0.07 0.09 0.06 0.03 0.03 0.03 0.02 0.02 0.02 0.03 0.04 0.05 0.04 0.06 0.07 0.07 0.05 0.05 0.04 0.04
0.03 0.03 0.05 0.06 0.09 0.12 0.11 0.09 0.06 0.05 0.05 0.03 0.02 0.02 0.03 0.04 0.03 0.03 0.03 0.04 0.05 0.06 0.06 0.06 0.07 0.06 0.04 0.04 0.04 0.03 0.02 0.03 0.03 0.03 0.04 0.05 0.05 0.05 0.07 0.08 0.07 0.06 0.05 0.04
0.03 0.04 0.05 0.07 0.10 0.11 0.08 0.05 0.04 0.03 0.02 0.02 0.02 0.03 0.04 0.04 0.03 0.02 0.03 0.03 0.04 0.06 0.06 0.07 0.07 0.06 0.05 0.04 0.05 0.05 0.05 0.06 0.06 0.05 0.06 0.06 0.06 0.05 0.05 0.05 0.05 0.05 0.05 0.05
MSLP
1005.50 1005.95 1006.14 1006.10 1005.90 1005.63 1005.36 1005.15 1005.02 1004.93 1004.85 1004.72 1004.51 1004.22 1003.86 1003.50 1003.22 1003.08 1003.14 1003.41 1003.87 1004.46 1005.11 1005.72 1006.23 1006.59 1006.78 1006.84 1006.82 1006.77 1006.76 1006.83 1007.01 1007.28 1007.63 1008.03 1008.45 1008.86 1009.24 1009.61 1009.97 1010.35 1010.75 1011.19
1005.60 1005.87 1005.89 1005.73 1005.47 1005.22 1005.05 1004.97 1004.99 1005.06 1005.09 1005.04 1004.85 1004.53 1004.11 1003.66 1003.27 1003.04 1003.03 1003.26 1003.71 1004.33 1005.02 1005.69 1006.27 1006.69 1006.95 1007.06 1007.08 1007.06 1007.06 1007.13 1007.30 1007.55 1007.88 1008.25 1008.63 1009.00 1009.36 1009.70 1010.05 1010.41 1010.82 1011.26
1005.42 1005.49 1005.35 1005.10 1004.84 1004.66 1004.62 1004.73 1004.95 1005.19 1005.37 1005.41 1005.26 1004.91 1004.41 1003.85 1003.34 1002.99 1002.86 1003.01 1003.41 1004.02 1004.73 1005.45 1006.09 1006.59 1006.93 1007.13 1007.23 1007.27 1007.33 1007.45 1007.64 1007.91 1008.23 1008.59 1008.96 1009.31 1009.64 1009.97 1010.29 1010.64 1011.03 1011.46
1004.91 1004.81 1004.55 1004.26 1004.04 1003.99 1004.13 1004.46 1004.90 1005.35 1005.69 1005.83 1005.72 1005.35 1004.77 1004.10 1003.45 1002.95 1002.69 1002.73 1003.05 1003.60 1004.30 1005.04 1005.74 1006.32 1006.76 1007.06 1007.26 1007.41 1007.56 1007.75 1008.00 1008.31 1008.67 1009.04 1009.40 1009.75 1010.07 1010.37 1010.68 1011.00 1011.35 1011.74
1004.11 1003.88 1003.56 1003.28 1003.16 1003.26 1003.61 1004.18 1004.85 1005.51 1006.02 1006.27 1006.20 1005.82 1005.18 1004.40 1003.62 1002.98 1002.59 1002.49 1002.71 1003.19 1003.85 1004.59 1005.32 1005.96 1006.49 1006.90 1007.21 1007.47 1007.73 1008.01 1008.34 1008.71 1009.10 1009.50 1009.88 1010.23 1010.54 1010.83 1011.10 1011.39 1011.69 1012.02
1003.11 1002.80 1002.48 1002.27 1002.27 1002.55 1003.11 1003.90 1004.79 1005.64 1006.30 1006.65 1006.64 1006.27 1005.59 1004.75 1003.87 1003.11 1002.60 1002.38 1002.49 1002.88 1003.48 1004.20 1004.93 1005.62 1006.21 1006.70 1007.11 1007.47 1007.83 1008.19 1008.59 1009.03 1009.47 1009.89 1010.29 1010.64 1010.95 1011.21 1011.45 1011.69 1011.94 1012.21
1002.02 1001.71 1001.43 1001.30 1001.44 1001.88 1002.63 1003.59 1004.65 1005.65 1006.43 1006.88 1006.93 1006.60 1005.94 1005.08 1004.17 1003.35 1002.76 1002.46 1002.48 1002.79 1003.32 1003.98 1004.69 1005.38 1006.00 1006.54 1007.01 1007.44 1007.86 1008.28 1008.74 1009.20 1009.67 1010.12 1010.53 1010.88 1011.17 1011.42 1011.63 1011.82 1012.02 1012.22
1001.00 1000.72 1000.51 1000.49 1000.74 1001.30 1002.16 1003.23 1004.39 1005.47 1006.33 1006.86 1006.99 1006.74 1006.15 1005.35 1004.48 1003.69 1003.09 1002.76 1002.72 1002.97 1003.43 1004.03 1004.68 1005.34 1005.94 1006.48 1006.96 1007.40 1007.84 1008.28 1008.74 1009.22 1009.69 1010.13 1010.53 1010.87 1011.15 1011.37 1011.56 1011.72 1011.87 1012.03
1000.18 999.96 999.82 999.87 1000.19 1000.80 1001.69 1002.78 1003.95 1005.05 1005.95 1006.54 1006.77 1006.63 1006.18 1005.52 1004.78 1004.10 1003.57 1003.27 1003.23 1003.43 1003.83 1004.36 1004.94 1005.52 1006.07 1006.55 1006.99 1007.40 1007.81 1008.22 1008.64 1009.08 1009.52 1009.93 1010.30 1010.62 1010.88 1011.08 1011.25 1011.39 1011.53 1011.66
999.65 999.49 999.41 999.49 999.81 1000.39 1001.22 1002.24 1003.34 1004.39 1005.29 1005.93 1006.26 1006.28 1006.03 1005.58 1005.06 1004.56 1004.18 1003.98 1003.99 1004.18 1004.53 1004.98 1005.47 1005.95 1006.40 1006.80 1007.15 1007.48 1007.81 1008.14 1008.49 1008.86 1009.23 1009.59 1009.91 1010.19 1010.43 1010.62 1010.78 1010.92 1011.05 1011.18
999.46 999.35 999.28 999.35 999.60 1000.08 1000.77 1001.64 1002.60 1003.57 1004.43 1005.11 1005.56 1005.77 1005.76 1005.58 1005.33 1005.09 1004.91 1004.86 1004.94 1005.16 1005.48 1005.85 1006.24 1006.61 1006.94 1007.22 1007.45 1007.67 1007.89 1008.11 1008.37 1008.64 1008.92 1009.20 1009.46 1009.70 1009.91 1010.08 1010.24 1010.39 1010.53 1010.69
999.58 999.49 999.41 999.42 999.56 999.88 1000.39 1001.07 1001.87 1002.71 1003.52 1004.24 1004.81 1005.22 1005.48 1005.60 1005.66 1005.69 1005.75 1005.86 1006.05 1006.30 1006.59 1006.89 1007.18 1007.43 1007.63 1007.78 1007.89 1007.99 1008.08 1008.20 1008.34 1008.51 1008.69 1008.89 1009.08 1009.27 1009.44 1009.59 1009.75 1009.90 1010.07 1010.24
999.96 999.87 999.76 999.68 999.70 999.85 1000.16 1000.64 1001.26 1001.98 1002.75 1003.50 1004.20 1004.81 1005.32 1005.74 1006.09 1006.39 1006.68 1006.95 1007.24 1007.52 1007.78 1008.02 1008.20 1008.34 1008.42 1008.45 1008.44 1008.43 1008.42 1008.42 1008.46 1008.52 1008.62 1008.73 1008.85 1008.98 1009.11 1009.23 1009.37 1009.52 1009.69 1009.87
1000.54 1000.43 1000.28 1000.13 1000.02 1000.03 1000.17 1000.47 1000.95 1001.56 1002.29 1003.07 1003.88 1004.67 1005.40 1006.08 1006.68 1007.21 1007.68 1008.09 1008.44 1008.74 1008.97 1009.14 1009.23 1009.27 1009.24 1009.17 1009.07 1008.96 1008.87 1008.79 1008.74 1008.72 1008.73 1008.76 1008.81 1008.88 1008.95 1009.03 1009.13 1009.25 1009.39 1009.56
1001.24 1001.12 1000.95 1000.75 1000.57 1000.47 1000.49 1000.68 1001.04 1001.58 1002.27 1003.09 1003.97 1004.89 1005.79 1006.65 1007.43 1008.13 1008.72 1009.21 1009.60 1009.89 1010.07 1010.17 1010.19 1010.14 1010.03 1009.89 1009.72 1009.56 1009.40 1009.26 1009.16 1009.07 1009.02 1008.98 1008.96 1008.95 1008.96 1008.98 1009.01 1009.06 1009.15 1009.26
1002.01 1001.92 1001.76 1001.56 1001.37 1001.23 1001.19 1001.31 1001.62 1002.11 1002.77 1003.59 1004.51 1005.50 1006.49 1007.44 1008.32 1009.09 1009.74 1010.25 1010.63 1010.89 1011.03 1011.06 1011.01 1010.90 1010.74 1010.55 1010.35 1010.16 1009.97 1009.81 1009.67 1009.55 1009.44 1009.35 1009.26 1009.18 1009.10 1009.03 1008.97 1008.94 1008.93 1008.95
1002.84 1002.81 1002.71 1002.57 1002.42 1002.31 1002.28 1002.39 1002.66 1003.12 1003.75 1004.54 1005.45 1006.43 1007.42 1008.38 1009.26 1010.03 1010.66 1011.14 1011.48 1011.68 1011.77 1011.75 1011.65 1011.51 1011.32 1011.12 1010.92 1010.73 1010.55 1010.38 1010.23 1010.09 1009.95 1009.81 1009.67 1009.51 1009.35 1009.18 1009.02 1008.87 1008.74 1008.64
1003.76 1003.82 1003.83 1003.79 1003.74 1003.70 1003.72 1003.85 1004.11 1004.54 1005.12 1005.84 1006.67 1007.57 1008.48 1009.36 1010.16 1010.85 1011.40 1011.81 1012.09 1012.23 1012.27 1012.22 1012.11 1011.95 1011.78 1011.59 1011.42 1011.25 1011.09 1010.95 1010.80 1010.66 1010.51 1010.34 1010.15 1009.94 1009.70 1009.44 1009.17 1008.90 1008.64 1008.42
1004.78 1004.96 1005.11 1005.20 1005.27 1005.33 1005.42 1005.57 1005.83 1006.20 1006.70 1007.31 1008.01 1008.76 1009.52 1010.26 1010.91 1011.48 1011.92 1012.24 1012.45 1012.55 1012.55 1012.49 1012.39 1012.26 1012.12 1011.98 1011.85 1011.73 1011.61 1011.50 1011.39 1011.26 1011.11 1010.93 1010.72 1010.47 1010.17 1009.84 1009.48 1009.11 1008.75 1008.41
1005.96 1006.27 1006.55 1006.78 1006.96 1007.11 1007.25 1007.43 1007.65 1007.95 1008.34 1008.80 1009.32 1009.88 1010.45 1011.00 1011.49 1011.90 1012.23 1012.46 1012.60 1012.67 1012.68 1012.64 1012.57 1012.49 1012.40 1012.32 1012.25 1012.19 1012.12 1012.06 1011.98 1011.88 1011.76 1011.59 1011.38 1011.12 1010.81 1010.44 1010.04 1009.60 1009.16 1008.73
1007.32 1007.74 1008.13 1008.46 1008.73 1008.94 1009.11 1009.27 1009.43 1009.63 1009.88 1010.17 1010.49 1010.85 1011.21 1011.56 1011.88 1012.15 1012.37 1012.53 1012.63 1012.70 1012.72 1012.73 1012.72 1012.70 1012.69 1012.67 1012.67 1012.66 1012.65 1012.63 1012.60 1012.55 1012.46 1012.33 1012.15 1011.92 1011.63 1011.27 1010.86 1010.42 1009.95 1009.47
1008.86 1009.36 1009.81 1010.19 1010.49 1010.71 1010.87 1010.97 1011.06 1011.14 1011.23 1011.35 1011.49 1011.64 1011.81 1011.99 1012.15 1012.31 1012.44 1012.55 1012.65 1012.73 1012.79 1012.86 1012.91 1012.97 1013.03 1013.08 1013.13 1013.18 1013.21 1013.24 1013.25 1013.24 1013.21 1013.13 1013.01 1012.83 1012.60 1012.30 1011.94 1011.53 1011.08 1010.61
1010.57 1011.08 1011.54 1011.90 1012.17 1012.35 1012.45 1012.47 1012.46 1012.42 1012.37 1012.33 1012.30 1012.30 1012.31 1012.35 1012.40 1012.47 1012.55 1012.64 1012.75 1012.86 1012.98 1013.11 1013.23 1013.35 1013.46 1013.57 1013.66 1013.74 1013.81 1013.87 1013.91 1013.94 1013.95 1013.94 1013.89 1013.79 1013.63 1013.42 1013.14 1012.81 1012.43 1012.01
1012.38 1012.85 1013.24 1013.53 1013.71 1013.80 1013.80 1013.73 1013.61 1013.45 1013.29 1013.13 1012.99 1012.87 1012.78 1012.73 1012.72 1012.74 1012.81 1012.90 1013.03 1013.18 1013.35 1013.53 1013.70 1013.86 1014.01 1014.13 1014.24 1014.33 1014.40 1014.47 1014.53 1014.58 1014.63 1014.66 1014.68 1014.66 1014.60 1014.49 1014.32 1014.09 1013.80 1013.47
1014.22 1014.58 1014.84 1015.00 1015.06 1015.02 1014.91 1014.73 1014.52 1014.28 1014.04 1013.80 1013.60 1013.42 1013.29 1013.20 1013.17 1013.19 1013.26 1013.37 1013.53 1013.71 1013.91 1014.12 1014.32 1014.49 1014.64 1014.76 1014.85 1014.91 1014.96 1015.00 1015.05 1015.10 1015.15 1015.22 1015.28 1015.33 1015.35 1015.33 1015.26 1015.14 1014.95 1014.71
1016.00 1016.20 1016.30 1016.29 1016.19 1016.01 1015.78 1015.51 1015.22 1014.93 1014.65 1014.39 1014.17 1013.99 1013.86 1013.79 1013.77 1013.81 1013.90 1014.04 1014.22 1014.42 1014.64 1014.85 1015.04 1015.20 1015.31 1015.39 1015.43 1015.44 1015.43 1015.42 1015.42 1015.43 1015.47 1015.53 1015.60 1015.68 1015.75 1015.81 1015.82 1015.79 1015.70 1015.55
Thickness
5782 5771 5768 5780 5792 5795 5798 5794 5793 5803 5819 5810 5801 5797 5803 5810 5810 5806 5805 5803 5801 5799 5801 5801 5799 5796 5793 5788 5783 5779 5775 5773 5769 5765 5761 5758 5756 5756 5755 5753 5750 5747 5744 5742
5770 5768 5786 5797 5801 5798 5795 5789 5792 5803 5815 5808 5798 5796 5804 5806 5805 5806 5803 5801 5799 5798 5797 5795 5794 5792 5789 5784 5780 5776 5772 5769 5766 5763 5760 5758 5756 5754 5752 5750 5747 5744 5741 5738
5767 5784 5799 5795 5791 5786 5787 5787 5790 5794 5805 5806 5793 5784 5793 5801 5806 5807 5806 5803 5800 5797 5793 5791 5790 5788 5785 5780 5776 5774 5769 5766 5763 5761 5758 5755 5752 5750 5747 5744 5742 5740 5737 5735
5777 5794 5795 5789 5786 5786 5778 5797 5796 5794 5786 5782 5788 5762 5780 5793 5794 5797 5798 5797 5795 5795 5793 5790 5787 5784 5781 5778 5775 5771 5766 5762 5759 5757 5753 5749 5745 5742 5741 5739 5738 5736 5734 5732
5774 5787 5786 5781 5787 5790 5787 5801 5796 5790 5782 5775 5782 5769 5771 5787 5780 5786 5792 5793 5793 5792 5791 5788 5786 5782 5780 5777 5772 5767 5763 5758 5755 5753 5750 5746 5742 5740 5739 5737 5734 5731 5730 5727
5779 5793 5791 5788 5795 5796 5794 5790 5785 5782 5775 5752 5770 5767 5766 5778 5779 5782 5786 5788 5788 5787 5786 5785 5784 5780 5776 5773 5769 5764 5758 5754 5751 5749 5746 5742 5738 5736 5733 5731 5728 5725 5723 5721
5763 5776 5789 5792 5780 5786 5782 5765 5746 5742 5744 5749 5777 5769 5768 5786 5792 5787 5781 5783 5783 5783 5780 5778 5776 5773 5769 5766 5763 5759 5754 5749 5746 5744 5742 5739 5736 5733 5729 5726 5723 5720 5718 5715
5746 5750 5775 5783 5775 5770 5770 5765 5741 5730 5739 5753 5769 5758 5770 5790 5791 5788 5783 5779 5777 5774 5773 5772 5770 5768 5764 5759 5756 5754 5748 5745 5742 5740 5738 5736 5733 5730 5727 5723 5720 5717 5714 5712
5745 5749 5778 5782 5783 5776 5762 5762 5771 5756 5754 5747 5756 5760 5767 5777 5775 5773 5770 5769 5768 5767 5764 5762 5762 5761 5758 5754 5751 5748 5743 5740 5738 5736 5733 5731 5729 5726 5723 5721 5718 5715 5713 5711
5749 5741 5761 5774 5776 5773 5771 5766 5757 5747 5733 5729 5741 5747 5746 5755 5756 5759 5759 5758 5758 5758 5756 5753 5753 5752 5748 5747 5744 5743 5739 5736 5734 5731 5729 5728 5725 5723 5720 5718 5714 5712 5710 5707
5749 5735 5745 5757 5753 5754 5758 5756 5752 5750 5749 5731 5723 5732 5759 5754 5754 5752 5751 5751 5752 5751 5748 5746 5746 5745 5743 5740 5737 5736 5734 5730 5728 5726 5724 5722 5720 5718 5716 5713 5711 5708 5706 5703
5742 5732 5726 5743 5764 5771 5762 5756 5750 5731 5731 5739 5729 5725 5758 5755 5753 5749 5746 5747 5746 5743 5742 5741 5738 5737 5736 5734 5732 5729 5728 5725 5723 5721 5719 5717 5715 5713 5711 5709 5707 5705 5703 5700
5730 5718 5707 5719 5737 5748 5747 5752 5753 5746 5736 5729 5722 5720 5746 5747 5743 5743 5741 5740 5739 5735 5733 5733 5731 5728 5727 5726 5724 5723 5723 5721 5719 5717 5714 5711 5710 5708 5706 5704 5703 5702 5699 5697
5725 5713 5704 5702 5717 5729 5730 5737 5744 5740 5724 5720 5723 5721 5729 5733 5732 5732 5733 5733 5731 5727 5725 5724 5721 5719 5719 5719 5718 5717 5716 5715 5713 5711 5708 5706 5704 5703 5702 5701 5699 5698 5695 5692
5716 5704 5708 5715 5724 5728 5726 5729 5736 5734 5731 5724 5724 5724 5723 5727 5728 5727 5728 5726 5723 5720 5718 5717 5715 5713 5712 5712 5711 5710 5709 5708 5707 5705 5703 5702 5701 5700 5699 5698 5696 5694 5691 5689
5705 5696 5701 5704 5715 5720 5718 5724 5729 5727 5728 5725 5723 5718 5725 5726 5725 5722 5720 5718 5715 5713 5713 5712 5710 5708 5707 5705 5704 5703 5702 5702 5701 5699 5698 5698 5696 5695 5695 5694 5692 5690 5687 5684
5696 5688 5685 5690 5709 5710 5704 5716 5720 5719 5721 5718 5710 5711 5716 5713 5713 5712 5712 5711 5709 5707 5707 5705 5703 5701 5701 5700 5699 5697 5696 5696 5695 5694 5693 5693 5692 5691 5690 5690 5687 5685 5683 5681
5687 5681 5679 5682 5689 5677 5698 5723 5721 5714 5713 5715 5711 5710 5710 5707 5709 5710 5709 5705 5704 5703 5701 5699 5697 5696 5696 5695 5694 5692 5692 5690 5689 5688 5687 5688 5688 5686 5685 5684 5682 5681 5679 5677
5690 5680 5673 5673 5673 5680 5693 5706 5707 5701 5696 5705 5703 5702 5703 5704 5701 5701 5705 5703 5700 5697 5695 5693 5692 5691 5689 5688 5687 5686 5686 5685 5684 5683 5683 5683 5682 5681 5680 5679 5677 5677 5675 5674
5685 5680 5669 5667 5661 5661 5676 5698 5707 5698 5680 5694 5696 5694 5692 5691 5682 5687 5698 5697 5694 5691 5688 5686 5685 5684 5682 5682 5681 5680 5679 5678 5677 5678 5678 5678 5678 5676 5676 5675 5674 5673 5672 5671
5663 5662 5658 5657 5653 5655 5674 5688 5693 5670 5667 5683 5686 5687 5686 5682 5681 5685 5689 5688 5686 5683 5680 5679 5677 5676 5676 5675 5674 5673 5673 5672 5673 5673 5673 5673 5673 5672 5672 5671 5670 5669 5668 5667
5654 5650 5649 5649 5644 5645 5668 5674 5666 5664 5674 5677 5678 5679 5678 5677 5678 5679 5679 5678 5677 5675 5673 5671 5670 5669 5669 5668 5666 5666 5666 5667 5668 5668 5668 5668 5668 5669 5669 5668 5667 5666 5664 5663
5650 5648 5646 5643 5643 5653 5661 5660 5663 5667 5666 5669 5671 5672 5672 5670 5669 5669 5669 5669 5667 5666 5664 5663 5662 5662 5662 5661 5661 5660 5661 5662 5662 5662 5662 5663 5664 5664 5664 5663 5662 5662 5661 5660
5645 5650 5644 5640 5643 5648 5652 5655 5656 5659 5661 5664 5667 5667 5665 5663 5663 5662 5661 5660 5658 5658 5657 5656 5654 5653 5654 5655 5656 5656 5656 5656 5656 5656 5656 5658 5658 5658 5659 5659 5659 5658 5657 5657
5630 5634 5632 5630 5635 5639 5642 5645 5648 5650 5654 5657 5659 5661 5660 5658 5657 5655 5653 5652 5651 5650 5650 5650 5648 5647 5648 5650 5651 5652 5652 5651 5651 5651 5651 5652 5653 5653 5653 5652 5652 5653 5652 5652
5623 5621 5619 5618 5625 5626 5631 5638 5641 5641 5643 5647 5649 5651 5653 5652 5649 5648 5646 5645 5645 5644 5644 5643 5643 5643 5643 5645 5646 5647 5648 5648 5646 5645 5646 5647 5648 5648 5648 5647 5647 5647 5647 5647